Location: Newark
(13.8117°N, 3.6025°W)
Time: 05:34:04
(UTC+00:00)

Vanguard 2 - Pass Details

Date: 28 August 2019
Orbit: 554 x 2937 km, 32.9° (Epoch: 19 September)

Event Time Altitude Azimuth Distance (km) Brightness Sun altitude
Rises 19:40:50 0° 283° (WNW) 5,424 13.6 -17.9°
Reaches altitude 10° 19:44:27 10° 274° (W) 4,727 12.7 -18.8°
Maximum altitude 19:56:56 36° 214° (SW) 3,757 11.1 -21.7°
Drops below altitude 10° 20:12:22 10° 155° (SSE) 5,753 11.6 -25.3°
Enters shadow 20:12:54 - 154° (SSE) 5,851 11.6 -25.4°
Sets 20:17:28 0° 146° (SSE) 6,690 - -26.5°
